Weather History for Wichita Falls, TX

Change the Weather History Date:

Tuesday, August 27, 2013

  Actual Average (KSPS) Record (KSPS)
Temperature  
Mean Temperature 79 °F 82 °F  
Max Temperature 88 °F 95 °F 109 °F (2011)
Min Temperature 71 °F 70 °F 59 °F (1962)
Cooling Degree Days 14 17  
Month to date cooling degree days 521  
Year to date cooling degree days 1877  
Growing Degree Days 29 (Base 50)    
Moisture  
Dew Point 65 °F    
Average Humidity 62    
Maximum Humidity 81    
Minimum Humidity 44    
Precipitation  
Precipitation 0.00 in 0.09 in 0.74 in (1941)
Month to date precipitation 2.12  
Year to date precipitation 19.35  
Sea Level Pressure  
Sea Level Pressure 30.08 in    
Wind  
Wind Speed 7 mph (SSE)    
Max Wind Speed 15 mph    
Max Gust Speed 20 mph    
Visibility 10 miles    
Events      
T = Trace of Precipitation, MM = Missing Value Source: NWS Daily Summary

Daily Weather History Graph

Daily Weather History Graph

Search for Another Location

Airport:

Trip Planner

Search our weather history database for the weather conditions in past years. The results will help you decide how hot, cold, wet, or windy it might be!

Date:

Astronomy

Aug. 27, 2013 Rise Set
Actual Time 7:04 AM CDT 8:05 PM CDT
Civil Twilight 6:38 AM CDT 8:31 PM CDT
Nautical Twilight 6:08 AM CDT 9:01 PM CDT
Astronomical Twilight 5:36 AM CDT 9:33 PM CDT
Moon No Moon Rise 1:43 PM CDT (8/27)
Length of Visible Light 13h 52m
Length of Day
13h 01m
Waning Gibbous, 57% of the Moon is Illuminated
Aug 27
Waning Gibbous
Aug 28
Last Quarter
Sep 5
New
Sep 12
First Quarter
Sep 19
Full

Hourly Weather History & Observations

Time (CDT) Temp. Heat Index Dew Point Humidity Pressure Visibility Wind Dir Wind Speed Gust Speed Precip Events Conditions
12:15 AM 78.8 °F - 59.0 °F 51% 30.08 in 10.0 mi ESE 5.8 mph - N/A   Clear
12:35 AM 78.1 °F - 59.0 °F 52% 30.08 in 10.0 mi ESE 3.5 mph - N/A   Clear
12:55 AM 77.0 °F - 59.2 °F 54% 30.08 in 10.0 mi East 4.6 mph - N/A   Clear
1:15 AM 76.3 °F - 59.4 °F 56% 30.08 in 10.0 mi ESE 5.8 mph - N/A   Clear
1:35 AM 76.6 °F - 60.1 °F 56% 30.08 in 10.0 mi ESE 6.9 mph - N/A   Clear
1:55 AM 75.4 °F - 60.8 °F 60% 30.07 in 10.0 mi SE 5.8 mph - N/A   Clear
2:15 AM 75.2 °F - 61.7 °F 63% 30.07 in 10.0 mi SSE 6.9 mph - N/A   Clear
2:35 AM 74.3 °F - 61.9 °F 65% 30.07 in 10.0 mi SSE 3.5 mph - N/A   Clear
2:55 AM 73.6 °F - 61.9 °F 67% 30.07 in 10.0 mi South 3.5 mph - N/A   Clear
3:15 AM 73.0 °F - 62.2 °F 69% 30.07 in 10.0 mi SSE 3.5 mph - N/A   Clear
3:35 AM 72.7 °F - 62.6 °F 71% 30.08 in 10.0 mi SSE 4.6 mph - N/A   Clear
3:55 AM 72.5 °F - 63.0 °F 72% 30.08 in 10.0 mi SSE 4.6 mph - N/A   Clear
4:15 AM 72.1 °F - 63.1 °F 73% 30.08 in 10.0 mi SE 4.6 mph - N/A   Clear
4:35 AM 71.6 °F - 63.3 °F 75% 30.08 in 10.0 mi Calm Calm - N/A   Clear
4:55 AM 71.8 °F - 63.5 °F 75% 30.08 in 10.0 mi Calm Calm - N/A   Clear
5:15 AM 71.6 °F - 63.7 °F 76% 30.09 in 10.0 mi SE 3.5 mph - N/A   Clear
5:35 AM 71.6 °F - 64.6 °F 78% 30.09 in 10.0 mi SE 5.8 mph - N/A   Clear
5:55 AM 71.8 °F - 65.5 °F 80% 30.10 in 10.0 mi ESE 4.6 mph - N/A   Clear
6:15 AM 71.8 °F - 65.7 °F 81% 30.10 in 10.0 mi SE 5.8 mph - N/A   Clear
6:35 AM 71.8 °F - 65.5 °F 80% 30.11 in 10.0 mi ESE 3.5 mph - N/A   Clear
6:55 AM 71.6 °F - 65.3 °F 80% 30.11 in 10.0 mi ESE 4.6 mph - N/A   Clear
7:15 AM 71.6 °F - 65.5 °F 81% 30.11 in 10.0 mi ESE 3.5 mph - N/A   Scattered Clouds
7:35 AM 72.0 °F - 65.7 °F 80% 30.12 in 10.0 mi ESE 4.6 mph - N/A   Mostly Cloudy
7:55 AM 73.0 °F - 66.0 °F 79% 30.11 in 10.0 mi ESE 4.6 mph - N/A   Scattered Clouds
8:15 AM 73.8 °F - 66.6 °F 78% 30.12 in 10.0 mi SE 6.9 mph - N/A   Clear
8:35 AM 74.7 °F - 67.3 °F 78% 30.12 in 10.0 mi SSE 6.9 mph - N/A   Clear
8:55 AM 75.7 °F - 68.0 °F 77% 30.12 in 10.0 mi SSE 6.9 mph - N/A   Clear
9:15 AM 78.1 °F - 68.0 °F 71% 30.12 in 10.0 mi SSE 9.2 mph - N/A   Clear
9:35 AM 80.2 °F 82.7 °F 67.6 °F 65% 30.13 in 10.0 mi South 6.9 mph - N/A   Clear
9:55 AM 81.7 °F 84.0 °F 66.7 °F 60% 30.12 in 10.0 mi SSE 12.7 mph - N/A   Clear
10:15 AM 81.1 °F 83.7 °F 67.3 °F 63% 30.13 in 10.0 mi SSE 10.4 mph - N/A   Clear
10:35 AM 82.6 °F 85.1 °F 67.1 °F 59% 30.13 in 10.0 mi SSE 13.8 mph 19.6 mph N/A   Scattered Clouds
10:55 AM 80.2 °F 82.6 °F 66.9 °F 64% 30.13 in 10.0 mi South 12.7 mph - N/A   Scattered Clouds
11:15 AM 80.8 °F 83.2 °F 66.9 °F 63% 30.13 in 10.0 mi SSE 12.7 mph - N/A   Clear
11:35 AM 81.3 °F 83.8 °F 67.3 °F 62% 30.12 in 10.0 mi South 8.1 mph - N/A   Clear
11:55 AM 82.4 °F 84.8 °F 66.7 °F 59% 30.12 in 10.0 mi South 11.5 mph - N/A   Scattered Clouds
12:15 PM 81.7 °F 83.6 °F 65.8 °F 58% 30.13 in 10.0 mi South 11.5 mph - N/A   Mostly Cloudy
12:35 PM 81.5 °F 83.9 °F 66.9 °F 61% 30.12 in 10.0 mi SSE 10.4 mph - N/A   Overcast
12:55 PM 82.4 °F 84.8 °F 66.9 °F 59% 30.12 in 10.0 mi SSE 9.2 mph - N/A   Mostly Cloudy
1:15 PM 82.4 °F 84.8 °F 66.6 °F 59% 30.11 in 10.0 mi SE 10.4 mph - N/A   Scattered Clouds
1:35 PM 82.0 °F 84.5 °F 66.7 °F 60% 30.11 in 10.0 mi SE 8.1 mph - N/A   Mostly Cloudy
1:55 PM 83.1 °F 85.7 °F 66.9 °F 58% 30.09 in 10.0 mi SSE 3.5 mph - N/A   Mostly Cloudy
2:15 PM 84.9 °F 87.6 °F 66.9 °F 55% 30.09 in 10.0 mi ESE 6.9 mph - N/A   Mostly Cloudy
2:35 PM 86.0 °F 87.6 °F 64.8 °F 49% 30.09 in 10.0 mi South 15.0 mph 18.4 mph N/A   Overcast
2:55 PM 85.6 °F 87.4 °F 65.3 °F 50% 30.08 in 10.0 mi SSE 10.4 mph - N/A   Overcast
3:15 PM 85.8 °F 88.5 °F 67.1 °F 53% 30.08 in 10.0 mi ESE 13.8 mph 17.3 mph N/A   Mostly Cloudy
3:35 PM 82.6 °F 86.1 °F 69.4 °F 64% 30.08 in 10.0 mi SE 10.4 mph - N/A   Mostly Cloudy
3:55 PM 82.6 °F 86.6 °F 70.0 °F 66% 30.07 in 10.0 mi South 6.9 mph - N/A   Mostly Cloudy
4:15 PM 84.0 °F 87.3 °F 68.2 °F 59% 30.07 in 10.0 mi South 10.4 mph - N/A   Scattered Clouds
4:35 PM 85.1 °F 87.7 °F 66.7 °F 54% 30.06 in 10.0 mi South 12.7 mph - N/A   Scattered Clouds
4:55 PM 86.2 °F 88.4 °F 66.0 °F 51% 30.06 in 10.0 mi South 11.5 mph - N/A   Clear
5:15 PM 86.0 °F 87.9 °F 65.7 °F 50% 30.06 in 10.0 mi SSE 13.8 mph - N/A   Clear
5:35 PM 87.4 °F 88.8 °F 64.2 °F 46% 30.05 in 10.0 mi South 9.2 mph - N/A   Clear
5:55 PM 86.7 °F 87.8 °F 63.7 °F 46% 30.05 in 10.0 mi South 6.9 mph - N/A   Clear
6:15 PM 87.6 °F 88.5 °F 63.3 °F 44% 30.04 in 10.0 mi South 10.4 mph - N/A   Clear
6:35 PM 87.4 °F 88.5 °F 63.7 °F 45% 30.04 in 10.0 mi SSW 8.1 mph - N/A   Mostly Cloudy
6:55 PM 86.2 °F 87.3 °F 63.7 °F 47% 30.04 in 10.0 mi SSW 6.9 mph - N/A   Overcast
7:15 PM 86.5 °F 88.4 °F 65.1 °F 49% 30.04 in 10.0 mi South 8.1 mph - N/A   Overcast
7:35 PM 86.2 °F 87.6 °F 64.2 °F 48% 30.03 in 10.0 mi South 9.2 mph - N/A   Scattered Clouds
7:55 PM 85.5 °F 86.8 °F 64.6 °F 49% 30.03 in 10.0 mi SSE 8.1 mph - N/A   Clear
8:15 PM 83.8 °F 84.9 °F 63.1 °F 50% 30.03 in 10.0 mi South 8.1 mph - N/A   Clear
8:35 PM 82.9 °F 84.0 °F 63.3 °F 51% 30.03 in 10.0 mi SSE 8.1 mph - N/A   Clear
8:55 PM 81.9 °F 83.5 °F 64.6 °F 56% 30.03 in 10.0 mi SSE 9.2 mph - N/A   Clear
9:15 PM 81.5 °F 83.4 °F 65.5 °F 58% 30.04 in 10.0 mi SSE 9.2 mph - N/A   Clear
9:35 PM 81.0 °F 82.9 °F 65.5 °F 59% 30.04 in 10.0 mi SSE 11.5 mph - N/A   Clear
9:55 PM 80.6 °F 82.7 °F 65.8 °F 61% 30.05 in 10.0 mi SSE 10.4 mph - N/A   Clear
10:15 PM 79.9 °F - 65.8 °F 62% 30.05 in 10.0 mi SSE 11.5 mph - N/A   Clear
10:35 PM 79.3 °F - 65.7 °F 63% 30.05 in 10.0 mi SSE 10.4 mph - N/A   Clear
10:55 PM 78.8 °F - 66.2 °F 65% 30.05 in 10.0 mi SSE 8.1 mph - N/A   Clear
11:15 PM 77.9 °F - 66.0 °F 67% 30.06 in 10.0 mi SSE 6.9 mph - N/A   Clear
11:35 PM 77.0 °F - 66.2 °F 69% 30.05 in 10.0 mi SSE 5.8 mph - N/A   Clear
11:55 PM 76.5 °F - 66.2 °F 70% 30.06 in 10.0 mi SSE 5.8 mph - N/A   Clear